Wind_Speed
11 10 9 7 6 5 5 4 5 7 7 7 8 10 12 14 15 16 17 18 19 19 18 18 18 18 18 18 17 17 17 17 19 20 21 22 23 23 24 24 24 25 25 26
9 9 8 7 6 5 5 4 5 7 7 8 9 11 12 13 13 15 16 16 17 17 16 16 16 16 16 17 17 16 16 18 20 21 22 23 24 24 24 24 25 25 26 27
6 7 7 6 5 5 4 5 6 8 8 8 9 9 10 11 13 14 13 13 13 13 13 13 13 13 14 15 16 16 17 19 21 21 22 23 24 25 26 26 26 27 27 27
6 6 5 5 5 5 5 5 7 8 8 8 9 10 10 10 10 10 10 9 10 11 11 11 13 13 14 15 16 17 19 20 21 22 24 25 26 27 28 28 28 28 29 29
6 5 5 5 5 6 6 6 6 7 8 9 8 8 9 9 9 8 8 9 9 10 11 12 13 13 14 15 17 18 20 21 22 24 25 26 27 28 29 29 29 30 30 31
6 6 5 5 5 6 6 6 6 6 6 7 7 7 9 8 8 9 9 9 9 10 10 11 12 13 15 17 19 20 22 23 24 25 26 27 28 29 29 30 30 31 31 32
8 6 6 6 5 6 6 6 6 6 6 7 7 7 8 7 7 8 8 8 9 9 11 12 13 15 16 18 20 22 23 24 25 27 27 28 29 29 30 31 31 32 33 33
7 7 7 7 6 7 6 5 5 5 6 7 7 7 8 7 7 7 7 8 9 10 12 13 14 16 18 19 21 23 24 25 26 27 28 29 29 30 30 31 31 32 33 34
6 7 8 8 8 7 7 6 6 5 5 6 7 7 7 7 7 7 8 9 10 12 13 15 16 17 19 21 22 23 25 26 27 28 28 28 29 30 31 31 32 32 32 33
6 7 8 8 8 7 7 6 5 3 4 4 7 8 8 8 8 9 9 10 12 13 15 16 17 18 20 21 23 24 25 26 27 27 28 29 29 30 30 31 32 32 32 33
7 7 8 8 8 7 6 6 4 4 4 2 6 8 8 8 9 9 10 12 13 14 15 16 17 19 20 21 23 24 25 26 27 27 28 29 30 31 31 32 32 33 33 33
7 7 7 8 7 6 6 6 5 4 5 4 4 9 8 9 10 10 11 13 14 15 16 17 18 19 20 21 23 24 25 26 27 28 29 30 31 32 32 33 33 34 34 34
7 7 5 7 8 7 6 5 5 5 5 4 4 9 9 10 10 11 12 13 14 15 16 17 19 20 21 22 24 25 26 27 28 29 30 31 32 33 34 34 34 35 35 35
7 7 6 7 9 7 6 6 6 5 4 6 6 9 9 10 10 11 12 13 14 15 16 18 19 20 21 23 24 26 27 29 30 31 32 33 34 35 35 35 35 36 35 35
8 7 8 8 8 7 7 8 8 7 6 6 8 9 9 10 10 11 12 13 14 15 16 18 19 20 22 24 25 27 29 30 31 32 33 34 35 36 36 36 36 36 35 35
9 9 8 7 7 8 8 8 8 8 8 8 8 9 10 10 10 11 12 13 14 15 17 18 20 21 23 25 26 29 30 32 33 33 34 35 36 36 36 36 37 37 36 35
11 10 9 8 8 8 8 9 9 9 9 9 9 10 10 10 11 12 13 14 15 16 18 19 21 22 24 25 27 29 31 33 34 35 35 36 37 37 37 37 37 36 36 35
11 11 10 9 9 9 10 9 9 9 10 10 10 11 11 11 12 13 13 15 16 17 18 20 22 23 25 26 28 30 32 33 35 35 36 37 37 38 38 38 37 37 36 35
12 12 11 10 10 10 10 9 9 10 10 10 11 11 12 12 13 14 15 15 17 18 19 21 22 24 25 27 29 30 32 34 35 36 37 38 38 38 38 38 37 36 36 35
12 12 12 11 10 10 11 11 10 10 11 11 12 12 13 13 14 15 16 16 17 19 20 21 23 24 26 27 29 31 33 35 35 36 38 38 38 38 39 38 37 36 35 34
13 13 13 12 12 12 14 12 11 11 12 12 13 13 14 14 15 16 17 17 19 20 21 22 24 25 26 28 30 32 33 35 36 37 38 39 39 39 39 39 37 36 35 34
14 15 15 15 14 15 16 14 14 14 15 15 14 14 15 16 17 17 18 19 20 21 22 23 25 26 27 29 31 32 34 36 37 38 39 40 40 40 40 39 37 36 35 33
16 16 17 16 17 18 17 17 17 16 16 16 16 16 17 17 18 19 19 20 21 22 23 24 26 27 28 30 32 33 35 37 38 39 40 40 40 40 40 39 37 35 34 33
18 17 17 17 17 18 18 18 18 18 18 18 18 18 19 19 20 21 21 21 22 24 25 26 27 28 30 31 33 34 36 37 39 40 41 41 40 40 40 38 37 35 34 33
20 19 18 18 18 19 19 19 19 19 19 20 20 20 21 21 22 23 23 23 24 25 26 27 28 30 31 32 33 34 36 38 39 40 41 41 41 40 39 38 37 35 34 33
21 21 20 20 20 19 19 20 20 20 21 21 22 22 23 23 24 24 25 25 26 27 28 29 30 31 32 32 33 35 36 38 39 41 42 42 41 40 39 38 36 35 34 33
Wind_Direction
351 350 344 332 325 312 307 300 295 296 292 276 268 267 265 266 268 273 274 274 280 285 285 289 289 293 295 298 298 299 301 304 306 305 305 304 303 300 297 295 292 290 287 284
351 344 331 325 322 310 309 307 302 300 301 289 281 275 272 275 280 285 281 278 281 286 289 297 298 299 302 305 306 306 308 309 308 307 307 306 305 304 301 298 296 294 290 287
343 330 324 319 315 304 296 294 293 295 294 296 296 289 282 283 287 288 288 281 284 290 294 301 308 309 311 311 314 313 315 314 312 311 310 308 308 306 304 301 298 295 292 289
331 331 326 318 310 297 291 294 295 299 303 305 304 300 294 297 299 299 300 296 292 299 305 310 315 318 318 318 317 315 314 313 313 312 311 310 309 307 305 302 300 297 295 292
322 324 325 309 296 290 289 301 303 303 305 308 310 310 311 310 311 311 311 309 308 311 313 316 319 320 319 318 317 315 315 314 314 313 312 310 309 307 305 303 301 299 297 294
310 310 310 306 295 292 299 309 309 311 313 311 315 317 316 321 324 321 318 319 316 316 318 318 318 318 318 319 318 318 317 316 315 314 312 311 309 308 307 305 303 301 298 295
305 304 299 298 296 295 297 308 320 321 317 306 309 314 317 328 331 331 327 327 326 327 325 319 317 318 318 319 319 319 319 318 316 315 313 313 312 311 309 307 304 302 300 297
295 296 291 290 291 291 294 286 283 284 296 303 307 307 313 320 323 328 330 330 328 324 321 318 317 318 319 320 321 321 320 319 318 317 316 315 313 311 309 307 305 303 301 299
284 285 283 283 284 285 285 283 283 284 293 308 311 307 308 312 318 324 328 329 327 323 320 319 320 320 321 322 322 322 322 322 321 319 318 316 314 313 311 310 308 305 303 301
283 287 286 287 286 281 281 288 288 279 285 310 309 307 307 306 314 320 324 326 323 321 320 320 320 321 322 323 324 324 324 324 322 321 320 318 317 316 315 313 311 309 306 303
279 283 285 287 284 276 276 284 283 280 267 272 292 294 304 306 310 313 316 319 319 318 319 320 322 323 324 324 325 326 326 325 324 324 323 322 321 320 318 316 314 311 308 305
270 268 273 282 281 275 272 275 274 274 283 283 286 291 300 303 305 307 311 315 316 318 319 322 324 325 325 326 328 329 328 328 328 328 327 326 324 323 321 318 316 314 311 308
265 260 271 290 290 281 273 268 267 275 284 287 289 290 298 302 304 306 310 314 316 319 321 324 326 327 328 329 331 331 331 332 332 331 330 328 327 326 324 321 319 317 314 312
261 253 232 236 253 270 274 264 267 276 282 286 284 290 297 301 304 307 310 314 317 321 324 325 326 328 330 332 334 335 335 334 334 334 333 331 330 329 326 324 322 320 317 314
254 250 245 246 252 261 264 264 265 269 269 276 283 291 296 301 306 310 314 317 320 322 324 326 329 332 334 336 337 337 338 337 336 336 335 334 332 331 329 327 325 323 320 317
251 245 244 254 261 264 264 264 264 267 271 278 285 290 294 299 305 310 313 317 319 323 326 329 332 335 337 338 339 340 339 339 338 337 336 335 334 333 331 329 326 324 322 319
249 247 248 258 268 269 271 267 266 270 276 279 284 290 295 300 304 308 312 317 321 324 328 331 334 336 338 339 339 340 340 340 339 339 338 337 336 334 333 330 329 327 325 322
248 247 249 252 261 266 261 267 268 272 276 277 282 291 297 301 304 307 312 317 322 325 328 331 334 337 337 338 339 339 339 339 339 339 338 337 336 335 334 332 331 329 327 325
250 246 247 250 258 267 266 268 270 272 276 280 286 292 297 301 304 308 313 317 321 324 327 331 333 335 336 337 338 339 339 339 339 339 338 338 337 336 335 334 332 331 329 326
249 247 246 247 247 254 263 269 274 278 280 284 286 290 295 301 305 309 312 315 320 323 326 329 331 333 335 337 338 340 340 340 339 339 339 339 338 338 336 335 334 332 331 329
250 249 247 249 251 257 263 269 276 279 278 284 286 289 294 298 302 307 311 314 318 322 324 327 329 331 334 335 337 339 340 340 340 340 340 340 339 339 338 337 335 334 333 331
251 250 250 252 254 258 265 269 271 274 278 283 286 289 292 297 301 305 309 313 317 320 322 324 327 329 332 334 336 338 339 339 340 340 341 340 339 339 339 338 337 335 335 333
250 249 250 251 252 257 263 267 271 275 280 284 287 290 293 296 300 304 308 312 315 317 319 321 323 326 329 332 334 335 337 338 339 340 341 341 340 340 340 339 338 337 336 336
253 251 253 255 259 261 263 268 272 276 280 283 286 290 292 295 299 302 306 309 312 314 315 318 320 323 327 330 332 333 334 337 338 339 340 340 339 339 340 340 339 339 338 337
255 254 254 258 261 263 265 269 272 276 279 283 286 289 291 294 297 300 303 306 309 310 313 316 318 321 324 326 329 331 333 336 337 338 339 339 339 339 339 339 340 340 339 339
255 256 258 260 263 265 269 272 273 276 279 282 286 288 290 293 295 297 300 304 306 308 310 313 316 318 321 324 327 330 332 333 335 336 337 338 338 339 339 340 339 340 340 340
Height
5874 5874 5874 5873 5872 5871 5871 5871 5871 5870 5870 5871 5871 5872 5872 5872 5872 5871 5870 5870 5869 5868 5867 5866 5864 5863 5861 5860 5859 5857 5856 5854 5852 5850 5847 5845 5843 5841 5839 5837 5835 5834 5832 5831
5874 5874 5873 5871 5871 5870 5870 5870 5870 5870 5869 5869 5869 5869 5869 5869 5868 5868 5866 5865 5864 5864 5862 5861 5860 5858 5857 5855 5854 5852 5850 5849 5847 5845 5842 5840 5837 5835 5833 5831 5829 5827 5825 5823
5874 5874 5872 5871 5870 5870 5869 5870 5870 5869 5868 5868 5868 5867 5867 5866 5865 5864 5862 5861 5860 5860 5859 5858 5857 5855 5853 5852 5850 5848 5846 5845 5843 5840 5837 5835 5832 5829 5826 5824 5822 5820 5818 5816
5873 5872 5871 5870 5869 5869 5869 5869 5868 5868 5868 5867 5867 5866 5865 5864 5863 5861 5859 5858 5858 5857 5856 5855 5854 5852 5850 5849 5847 5845 5843 5841 5838 5835 5832 5829 5826 5823 5820 5817 5814 5812 5809 5807
5873 5871 5870 5869 5869 5868 5868 5868 5867 5867 5866 5866 5865 5865 5864 5861 5860 5859 5857 5856 5856 5855 5854 5853 5852 5850 5848 5846 5844 5842 5839 5837 5834 5830 5827 5824 5820 5816 5813 5810 5807 5804 5801 5798
5871 5870 5869 5868 5868 5867 5867 5867 5866 5866 5865 5866 5864 5864 5862 5860 5858 5857 5856 5855 5854 5853 5852 5851 5850 5848 5846 5844 5841 5838 5835 5832 5829 5825 5822 5818 5814 5810 5806 5803 5799 5796 5792 5790
5870 5869 5868 5867 5867 5866 5866 5867 5867 5866 5866 5865 5863 5862 5862 5859 5857 5856 5855 5854 5853 5852 5851 5850 5848 5846 5844 5841 5838 5835 5831 5828 5824 5820 5816 5812 5807 5803 5799 5795 5791 5787 5784 5780
5869 5869 5867 5866 5866 5865 5865 5865 5866 5866 5866 5864 5861 5861 5860 5858 5857 5855 5854 5854 5852 5851 5850 5848 5846 5844 5841 5838 5834 5831 5827 5823 5819 5814 5810 5805 5801 5797 5792 5788 5784 5780 5775 5771
5868 5867 5865 5864 5864 5864 5863 5863 5863 5863 5863 5863 5861 5860 5859 5857 5856 5855 5854 5852 5851 5849 5848 5846 5843 5840 5837 5834 5831 5827 5823 5818 5813 5809 5804 5800 5795 5790 5786 5781 5776 5771 5767 5763
5865 5865 5864 5863 5862 5862 5862 5861 5861 5862 5862 5863 5861 5859 5858 5856 5855 5854 5852 5851 5849 5848 5846 5843 5840 5838 5834 5831 5827 5823 5818 5813 5808 5804 5799 5794 5789 5784 5778 5773 5768 5763 5758 5754
5863 5863 5862 5861 5861 5861 5861 5860 5860 5860 5860 5862 5862 5861 5857 5855 5854 5852 5851 5849 5848 5846 5843 5841 5838 5834 5831 5827 5823 5818 5814 5809 5804 5798 5793 5788 5782 5776 5771 5765 5760 5755 5750 5745
5860 5861 5861 5860 5859 5859 5858 5858 5859 5859 5858 5858 5859 5860 5854 5853 5852 5850 5849 5847 5845 5843 5840 5837 5834 5831 5827 5823 5819 5814 5809 5804 5798 5793 5787 5781 5775 5769 5763 5757 5752 5746 5741 5735
5858 5859 5860 5860 5860 5858 5857 5856 5857 5857 5857 5857 5858 5857 5853 5851 5850 5848 5847 5845 5842 5840 5837 5834 5831 5827 5823 5819 5814 5809 5804 5799 5793 5787 5781 5775 5769 5762 5756 5749 5743 5737 5731 5726
5855 5856 5858 5860 5858 5856 5855 5855 5855 5855 5856 5855 5854 5853 5851 5849 5848 5846 5844 5842 5839 5837 5834 5831 5827 5824 5819 5815 5810 5805 5799 5793 5787 5781 5775 5768 5762 5755 5748 5742 5735 5729 5722 5716
5853 5854 5854 5854 5853 5853 5853 5853 5852 5852 5853 5853 5852 5850 5849 5847 5845 5843 5841 5839 5836 5834 5831 5827 5824 5820 5815 5810 5805 5800 5794 5788 5782 5776 5769 5762 5755 5748 5741 5734 5727 5720 5714 5708
5850 5851 5851 5851 5851 5850 5850 5850 5850 5850 5850 5849 5849 5848 5846 5844 5842 5840 5838 5836 5833 5831 5827 5824 5820 5815 5811 5806 5801 5795 5789 5783 5776 5770 5763 5756 5749 5742 5734 5727 5720 5713 5706 5699
5847 5848 5849 5849 5849 5848 5848 5848 5847 5847 5846 5846 5846 5845 5842 5841 5839 5837 5835 5833 5830 5827 5824 5820 5816 5811 5806 5801 5796 5790 5784 5778 5771 5765 5758 5750 5743 5735 5728 5720 5712 5705 5698 5691
5844 5844 5845 5846 5847 5846 5848 5844 5844 5844 5843 5843 5842 5840 5839 5837 5836 5834 5831 5829 5826 5823 5820 5816 5811 5807 5802 5797 5791 5786 5779 5773 5766 5759 5752 5744 5737 5729 5721 5713 5705 5698 5690 5683
5840 5841 5842 5843 5844 5843 5843 5842 5841 5841 5840 5839 5838 5837 5835 5833 5832 5830 5827 5825 5822 5819 5816 5812 5807 5802 5797 5792 5787 5781 5775 5768 5761 5754 5746 5739 5731 5723 5715 5706 5698 5691 5683 5676
5836 5837 5839 5839 5840 5841 5841 5838 5837 5838 5837 5835 5834 5833 5831 5830 5828 5826 5823 5821 5818 5815 5811 5807 5803 5798 5793 5788 5782 5776 5770 5763 5756 5748 5741 5733 5725 5717 5709 5700 5692 5684 5677 5669
5833 5833 5834 5835 5836 5837 5835 5834 5835 5836 5834 5832 5830 5829 5827 5826 5824 5822 5819 5816 5813 5810 5806 5802 5798 5793 5788 5783 5777 5771 5765 5758 5750 5743 5735 5727 5719 5711 5703 5694 5686 5678 5670 5663
5828 5830 5830 5831 5832 5834 5830 5830 5831 5830 5828 5827 5826 5824 5823 5821 5819 5817 5814 5812 5809 5805 5802 5797 5793 5788 5783 5778 5772 5766 5760 5753 5745 5738 5730 5721 5713 5705 5697 5688 5680 5672 5665 5657
5824 5825 5825 5826 5828 5826 5825 5825 5825 5824 5823 5822 5821 5820 5818 5816 5814 5812 5809 5806 5803 5800 5796 5792 5788 5783 5778 5773 5767 5761 5754 5747 5740 5732 5724 5716 5708 5699 5691 5682 5674 5666 5659 5651
5818 5819 5819 5820 5820 5820 5820 5819 5819 5819 5818 5817 5816 5814 5813 5811 5809 5806 5804 5801 5798 5794 5791 5787 5782 5778 5773 5767 5762 5755 5749 5742 5734 5727 5719 5710 5702 5694 5685 5677 5669 5661 5654 5646
5812 5813 5814 5814 5815 5814 5814 5814 5813 5813 5812 5811 5810 5809 5807 5805 5803 5800 5798 5795 5792 5789 5785 5781 5777 5772 5767 5761 5756 5749 5743 5736 5728 5721 5713 5705 5696 5688 5680 5672 5664 5656 5649 5641
5806 5807 5808 5809 5809 5809 5809 5808 5808 5807 5806 5805 5804 5803 5801 5799 5797 5794 5792 5789 5786 5782 5779 5775 5770 5766 5761 5755 5749 5743 5737 5730 5723 5715 5707 5699 5691 5683 5675 5667 5659 5651 5645 5637